"Pseudo-MPEC" for A10clD5

Created 2019 Mar 19 9:18:06 UT using Find_Orb

Click here for an explanation of pseudo-MPECs

 
 Astrometry: 
     A10clD5  C2019 03 09lu!Astrometry\qa=*a3:rGd+3redacted;[jI0ULC%q@0jq96l:T08
     A10clD5  C2019 03 09G=X;5%%@8;w\d-kk*qb%[-vtChiclickJ+Do,;MHPR'KDBHZa/KRT08
     A10clD5  C2019 03 091!n`y6OIuM(ik*?weDA.FUIU[UI1IACK6)J2s_l^(]Bhere5-FVoT08
     A10clD5  C2019 03 09GMK2wm/H]8Lc$E?dkWforlOyHdaotVb:)d;VjNS]]UtP'7T'Wrr4T08
     A10clD5  C2019 03 09eO\:_xTh=pE-DRD[.r15/f@85/W6wEVL[peZJ.Qexplanation@ST08

Station data:
(T08) ATLAS-MLO, Mauna Loa  (N19.535772 W155.576400)  US/Hawaii.

Orbital elements:  A10clD5
   Perihelion 2019 Apr 1.376687 +/- 12.2 TT =  9:02:25 (JD 2458574.876687)
Epoch 2019 Mar  9.0 TT = JDT 2458551.5   Earth MOID: 0.0111   Ma: 0.0042
M 348.67519675 +/- 8                (J2000 ecliptic)          AutoNEOCP
n   0.48444859 +/- 0.296            Peri.  219.15341 +/- 70
a   1.60560082 +/- 0.654            Node   336.33620 +/- 59
e   0.3915801 +/- 0.241             Incl.    2.06759 +/- 2.4
P   2.03/743.10d           H 25.4   G  0.15   U 11.9  SR
q 0.97687949 +/- 0.0459    Q 2.23432216 +/- 60.4
From 5 observations 2019 Mar. 9 (48.6 min); mean residual 0".16
Residuals in arcseconds: 
190309 T08  .06-  .18-    190309 T08  .20-  .10-    190309 T08  .09-  .12-    
190309 T08  .17+  .28+    190309 T08  .19+  .11+    

Ephemerides (geocentric):
Date (UTC) HH   RA              Dec         delta   r     elong  mag " sig PA
---- -- -- --  -------------   -----------  ------ ------ -----  --- ---- ---
2019 03 19 09  19 22 08.384   -47 00 46.61  .03396 .98694  74.5 21.9  27d 144
2019 03 19 10  19 22 40.831   -46 56 03.48  .03410 .98688  74.5 21.9  27d 144
2019 03 19 11  19 23 12.917   -46 51 22.16  .03425 .98681  74.4 21.9  27d 144
2019 03 19 12  19 23 44.647   -46 46 42.65  .03439 .98675  74.3 21.9  27d 144
2019 03 19 13  19 24 16.028   -46 42 04.94  .03454 .98668  74.3 21.9  27d 144
2019 03 19 14  19 24 47.063   -46 37 29.02  .03469 .98662  74.2 21.9  27d 144
2019 03 19 15  19 25 17.761   -46 32 54.86  .03483 .98655  74.1 21.9  27d 144
2019 03 19 16  19 25 48.125   -46 28 22.47  .03498 .98649  74.1 21.9  27d 144
2019 03 19 17  19 26 18.161   -46 23 51.83  .03513 .98643  74.0 22.0  27d 144
2019 03 19 18  19 26 47.874   -46 19 22.93  .03527 .98636  73.9 22.0  27d 144
2019 03 19 19  19 27 17.270   -46 14 55.75  .03542 .98630  73.9 22.0  27d 144
2019 03 19 20  19 27 46.353   -46 10 30.29  .03557 .98624  73.8 22.0  27d 144
2019 03 19 21  19 28 15.128   -46 06 06.54  .03571 .98617  73.7 22.0  27d 144
2019 03 19 22  19 28 43.601   -46 01 44.47  .03586 .98611  73.7 22.0  27d 144
2019 03 19 23  19 29 11.775   -45 57 24.09  .03601 .98605  73.6 22.0  27d 144
2019 03 20 00  19 29 39.656   -45 53 05.37  .03616 .98599  73.5 22.0  27d 144
2019 03 20 01  19 30 07.249   -45 48 48.31  .03630 .98593  73.5 22.1  27d 144
2019 03 20 02  19 30 34.556   -45 44 32.90  .03645 .98586  73.4 22.1  27d 144
2019 03 20 03  19 31 01.584   -45 40 19.11  .03660 .98580  73.4 22.1  27d 144
2019 03 20 04  19 31 28.336   -45 36 06.95  .03675 .98574  73.3 22.1  27d 144
2019 03 20 05  19 31 54.817   -45 31 56.40  .03690 .98568  73.3 22.1  27d 144
2019 03 20 06  19 32 21.030   -45 27 47.44  .03704 .98562  73.2 22.1  27d 144
2019 03 20 07  19 32 46.980   -45 23 40.07  .03719 .98556  73.1 22.1  27d 144
2019 03 20 08  19 33 12.670   -45 19 34.27  .03734 .98550  73.1 22.1  27d 144
2019 03 20 09  19 33 38.105   -45 15 30.03  .03749 .98544  73.0 22.1  27d 144
2019 03 20 10  19 34 03.288   -45 11 27.34  .03764 .98538  73.0 22.2  27d 144
2019 03 20 11  19 34 28.223   -45 07 26.19  .03779 .98532  72.9 22.2  27d 144
2019 03 20 12  19 34 52.915   -45 03 26.57  .03794 .98526  72.9 22.2  27d 144
2019 03 20 13  19 35 17.365   -44 59 28.46  .03808 .98520  72.8 22.2  27d 144
2019 03 20 14  19 35 41.579   -44 55 31.85  .03823 .98514  72.8 22.2  27d 144
2019 03 20 15  19 36 05.559   -44 51 36.73  .03838 .98508  72.7 22.2  27d 143
2019 03 20 16  19 36 29.308   -44 47 43.10  .03853 .98502  72.7 22.2  27d 143
2019 03 20 17  19 36 52.831   -44 43 50.93  .03868 .98496  72.6 22.2  27d 143
2019 03 20 18  19 37 16.131   -44 40 00.22  .03883 .98490  72.6 22.2  27d 143
2019 03 20 19  19 37 39.210   -44 36 10.95  .03898 .98484  72.5 22.3  27d 143
2019 03 20 20  19 38 02.073   -44 32 23.12  .03913 .98478  72.5 22.3  27d 143
2019 03 20 21  19 38 24.721   -44 28 36.71  .03928 .98473  72.4 22.3  27d 143
2019 03 20 22  19 38 47.158   -44 24 51.72  .03943 .98467  72.4 22.3  27d 143
2019 03 20 23  19 39 09.388   -44 21 08.12  .03958 .98461  72.4 22.3  27d 143
2019 03 21 00  19 39 31.412   -44 17 25.91  .03973 .98455  72.3 22.3  27d 143
2019 03 21 01  19 39 53.235   -44 13 45.08  .03988 .98450  72.3 22.3  27d 143
2019 03 21 02  19 40 14.858   -44 10 05.62  .04003 .98444  72.2 22.3  27d 143
2019 03 21 03  19 40 36.285   -44 06 27.52  .04018 .98438  72.2 22.3  27d 143
2019 03 21 04  19 40 57.518   -44 02 50.76  .04033 .98433  72.1 22.3  27d 143
2019 03 21 05  19 41 18.560   -43 59 15.33  .04048 .98427  72.1 22.4  27d 143
2019 03 21 06  19 41 39.414   -43 55 41.23  .04063 .98421  72.1 22.4  27d 143
2019 03 21 07  19 42 00.083   -43 52 08.44  .04078 .98416  72.0 22.4  27d 143
2019 03 21 08  19 42 20.568   -43 48 36.96  .04093 .98410  72.0 22.4  27d 143